Address 0x9793dd93d46f153a2a879165cd163a01b54d8a00 3

Txn Hash Method
Block
From
To
Value [Txn Fee]
0x1cd2c9d8e39eca4b9ac4ba6297bc062e0a29f65b65013794d499ec2cc006ef35Grant Role114459022021-08-13 14:20:3142 days 1 hr ago0x9793dd93d46f153a2a879165cd163a01b54d8a00OUT 0xb27a3f2c553933d93a893b195593b49fd75071950 BNB0.0007388
0x86039332e43b6548330e302cae6fe43616aceb827981cb5993cf20b3b5b24213Admin Set Burnab...114384302021-08-13 8:06:5542 days 8 hrs ago0x9793dd93d46f153a2a879165cd163a01b54d8a00OUT 0xb27a3f2c553933d93a893b195593b49fd75071950 BNB0.00048062
0x9e7439308a175ef10a66359fad390424f8a49c7741c332857f72fbeae56d0b22Admin Set Resour...114384262021-08-13 8:06:4342 days 8 hrs ago0x9793dd93d46f153a2a879165cd163a01b54d8a00OUT 0xb27a3f2c553933d93a893b195593b49fd75071950 BNB0.00109613
0x96b7d24fd2f9cdb8b441942925e250ce4d3e7d22dece9dd9b09a270132a34e220x60806040114238272021-08-12 19:56:2942 days 20 hrs ago0x9793dd93d46f153a2a879165cd163a01b54d8a00OUT Contract Creation0 BNB0.0114702
0x44fdbe62cf59926e9144406880b54ae38f5d1ea093399e473696e38905238076Admin Set Burnab...113945682021-08-11 19:33:2143 days 20 hrs ago0x9793dd93d46f153a2a879165cd163a01b54d8a00OUT 0xb27a3f2c553933d93a893b195593b49fd75071950 BNB0.00028862
0x903bf047654c1596c80bf2479c9c9c874cd4bedd6a0272af18089d5d245dcc52Admin Set Resour...113945642021-08-11 19:33:0943 days 20 hrs ago0x9793dd93d46f153a2a879165cd163a01b54d8a00OUT 0xb27a3f2c553933d93a893b195593b49fd75071950 BNB0.00075413
0x7d577b8ac2c9cfd9c6b8ac4a8d8022da71bd499819adef39de08a4d91af4b4cdAdmin Set Burnab...113658682021-08-10 19:09:3844 days 21 hrs ago0x9793dd93d46f153a2a879165cd163a01b54d8a00OUT 0xb27a3f2c553933d93a893b195593b49fd75071950 BNB0.00048062
0x1dc0a87c6227e8f2001016caeff27697a9f3999e6e9a906356c4b82f07a79aabAdmin Set Resour...113658642021-08-10 19:09:2644 days 21 hrs ago0x9793dd93d46f153a2a879165cd163a01b54d8a00OUT 0xb27a3f2c553933d93a893b195593b49fd75071950 BNB0.00109613
0xd0f7c6dced770275a2fdcddba2dbc0ad0478f9497d0f393c6001995c72ff0bf4Add Minter105527752021-07-13 9:40:2473 days 6 hrs ago0x9793dd93d46f153a2a879165cd163a01b54d8a00OUT 0xd859bc152d041b4b6486e55f8635473b86f3b4ee0 BNB0.00072928
0x00d3d9431a4abdabbd5ce469392a0be5d587b80323420034738b507ea62f572fSet Approval For...103548722021-07-06 11:26:0280 days 4 hrs ago0x9793dd93d46f153a2a879165cd163a01b54d8a00OUT 0x2009f4fcceed64398b5a0a356141b78d2821250e0 BNB0.00025722
0x686973bd5f94d75aeaf3e92b7384fa3e53a6606fab53fc5fd0aea1e632fbb771Burn For103543672021-07-06 11:00:4780 days 5 hrs ago0x9793dd93d46f153a2a879165cd163a01b54d8a00OUT 0x2009f4fcceed64398b5a0a356141b78d2821250e0 BNB0.00095093
0xee4a47f25009e8c9e812d3bead434b03f2e28a6ba52efd2f2cdf5758fb60f4a8Set Approval For...103543632021-07-06 11:00:3580 days 5 hrs ago0x9793dd93d46f153a2a879165cd163a01b54d8a00OUT 0x2009f4fcceed64398b5a0a356141b78d2821250e0 BNB0.00025722
0x06dd72a428b9ac7554d13306d043d877ac0977d72f617f8415019f523eb8f4d1Burn For103529862021-07-06 9:51:4480 days 6 hrs ago0x9793dd93d46f153a2a879165cd163a01b54d8a00OUT 0x2009f4fcceed64398b5a0a356141b78d2821250e0 BNB0.00034377
0x89573a835018384893787ca814017fcda374a23b9cbd8ab86bef7b6d46b9844aBurn For103529842021-07-06 9:51:3880 days 6 hrs ago0x9793dd93d46f153a2a879165cd163a01b54d8a00OUT 0x2009f4fcceed64398b5a0a356141b78d2821250e0 BNB0.00059112
0xfa6e0bbdbedd0fcdb37a6bc5684056df953b9db5605e570e5be16e46430bf12eBurn For103529822021-07-06 9:51:3280 days 6 hrs ago0x9793dd93d46f153a2a879165cd163a01b54d8a00OUT 0x2009f4fcceed64398b5a0a356141b78d2821250e0 BNB0.0005741
0x730c955832422d659b354b0e242a70382e546e72d2c811490430645125ce2154Burn For103529792021-07-06 9:51:2380 days 6 hrs ago0x9793dd93d46f153a2a879165cd163a01b54d8a00OUT 0x2009f4fcceed64398b5a0a356141b78d2821250e0 BNB0.00097533
0xecbbeaa34106b8f76716eb8b19ae7d885a06ae49ba9625f4f4be999ed0db36d1Set Approval For...103529762021-07-06 9:51:1480 days 6 hrs ago0x9793dd93d46f153a2a879165cd163a01b54d8a00OUT 0x2009f4fcceed64398b5a0a356141b78d2821250e0 BNB0.00025722
0x48b00b90315e67e4cd8eb770fcb9f296b6565752bca5527bd77958b671455342Mint103529312021-07-06 9:48:5980 days 6 hrs ago0x9793dd93d46f153a2a879165cd163a01b54d8a00OUT 0x2009f4fcceed64398b5a0a356141b78d2821250e0 BNB0.00059408
0x4ebc416fbd804d72bad1a5b4b3d572a6af6f25577b8b6adc55db89ee7b3f18bdMint103529252021-07-06 9:48:4180 days 6 hrs ago0x9793dd93d46f153a2a879165cd163a01b54d8a00OUT 0x2009f4fcceed64398b5a0a356141b78d2821250e0 BNB0.00080636
0xe76607bbf28f6a4ad8a591eee3fd8ae941ded660e9c049dbb57ca4cc02047b7eMint103529172021-07-06 9:48:1780 days 6 hrs ago0x9793dd93d46f153a2a879165cd163a01b54d8a00OUT 0x2009f4fcceed64398b5a0a356141b78d2821250e0 BNB0.00059408
0x5d88784bd4035d2db1127e0e140a4b02f00a3f65b6a71445a90de54ac47ab9baBurn For103528912021-07-06 9:46:5980 days 6 hrs ago0x9793dd93d46f153a2a879165cd163a01b54d8a00OUT 0x2009f4fcceed64398b5a0a356141b78d2821250e0 BNB0.00026245
0x9bca4a4abe72c95188f047853de883e2e6662062264b5ea79a0f4e65fa3318a5Burn For103528892021-07-06 9:46:5380 days 6 hrs ago0x9793dd93d46f153a2a879165cd163a01b54d8a00OUT 0x2009f4fcceed64398b5a0a356141b78d2821250e0 BNB0.00058791
0x372f4aab9bba0bca96f96209d32b1c10cfabbcabd4e8a61cd705a91b61244afcSet Approval For...103528862021-07-06 9:46:4480 days 6 hrs ago0x9793dd93d46f153a2a879165cd163a01b54d8a00OUT 0x2009f4fcceed64398b5a0a356141b78d2821250e0 BNB0.00025722
0xd848fc10444f1e343a2fc5e8b6b70fb8180be4f14e2be37067fec6d7e269f891Burn For103528852021-07-06 9:46:4180 days 6 hrs ago0x9793dd93d46f153a2a879165cd163a01b54d8a00OUT 0x2009f4fcceed64398b5a0a356141b78d2821250e0 BNB0.00057831
0x1f33133b6a395f971c14c8c4644ce7882478ba1a4ccb488a9a83bf72e3cad6efBurn For103526112021-07-06 9:32:5980 days 6 hrs ago0x9793dd93d46f153a2a879165cd163a01b54d8a00OUT 0x2009f4fcceed64398b5a0a356141b78d2821250e0 BNB0.00098803
[ Download CSV Export 
Parent Txn Hash Block From To Value
Loading

Contract Name:
0 BNB

Compiler Version
0

Optimization Enabled:
0 BNB

Other Settings:
-NA-
Block Transaction Gas Used Reward
Age Block Fee Address BC Fee Address Voting Power Jailed Incoming
Block Uncle Number Difficulty Gas Used Reward
Loading